Time,TemperatureF,DewpointF,PressureIn,WindDirection,WindDirectionDegrees,WindSpeedMPH,WindSpeedGustMPH,Humidity,HourlyPrecipIn,Conditions,Clouds,dailyrainin,SoftwareType,DateUTC
2013-07-28 00:02:00,57.0,43.0,30.25,North,-999,-999.0,-999.0,59,-99.99,,,-99.99,,2013-07-28 06:02:00,
2013-07-28 00:12:00,57.0,43.0,30.25,North,-999,-999.0,-999.0,59,-99.99,,,-99.99,,2013-07-28 06:12:00,
2013-07-28 00:22:00,54.0,47.0,30.24,North,-999,-999.0,-999.0,74,-99.99,,,-99.99,,2013-07-28 06:22:00,
2013-07-28 00:32:00,54.0,47.0,30.24,North,-999,-999.0,-999.0,74,-99.99,,,-99.99,,2013-07-28 06:32:00,
2013-07-28 00:43:00,54.0,47.0,30.24,North,-999,-999.0,-999.0,74,-99.99,,,-99.99,,2013-07-28 06:43:00,
2013-07-28 00:53:00,54.0,46.0,30.23,North,-999,-999.0,-999.0,76,-99.99,,,-99.99,,2013-07-28 06:53:00,
2013-07-28 01:02:00,54.0,46.0,30.23,North,-999,-999.0,-999.0,76,-99.99,,,-99.99,,2013-07-28 07:02:00,
2013-07-28 01:12:00,54.0,46.0,30.23,North,-999,-999.0,-999.0,76,-99.99,,,-99.99,,2013-07-28 07:12:00,
2013-07-28 01:22:00,53.0,46.0,30.21,North,-999,-999.0,-999.0,77,-99.99,,,-99.99,,2013-07-28 07:22:00,
2013-07-28 01:32:00,53.0,46.0,30.21,North,-999,-999.0,-999.0,77,-99.99,,,-99.99,,2013-07-28 07:32:00,
2013-07-28 01:43:00,53.0,46.0,30.21,North,-999,-999.0,-999.0,77,-99.99,,,-99.99,,2013-07-28 07:43:00,
2013-07-28 01:53:00,53.0,47.0,30.21,North,-999,-999.0,-999.0,80,-99.99,,,-99.99,,2013-07-28 07:53:00,
2013-07-28 02:02:00,53.0,47.0,30.21,North,-999,-999.0,-999.0,80,-99.99,,,-99.99,,2013-07-28 08:02:00,
2013-07-28 02:12:00,53.0,47.0,30.21,North,-999,-999.0,-999.0,80,-99.99,,,-99.99,,2013-07-28 08:12:00,
2013-07-28 02:22:00,54.0,48.0,30.20,North,-999,-999.0,-999.0,82,-99.99,,,-99.99,,2013-07-28 08:22:00,
2013-07-28 02:33:00,54.0,48.0,30.20,North,-999,-999.0,-999.0,82,-99.99,,,-99.99,,2013-07-28 08:33:00,
2013-07-28 02:42:00,54.0,48.0,30.20,North,-999,-999.0,-999.0,82,-99.99,,,-99.99,,2013-07-28 08:42:00,
2013-07-28 02:53:00,54.0,49.0,30.18,North,-999,-999.0,-999.0,84,-99.99,,,-99.99,,2013-07-28 08:53:00,
2013-07-28 03:02:00,54.0,49.0,30.18,North,-999,-999.0,-999.0,84,-99.99,,,-99.99,,2013-07-28 09:02:00,
2013-07-28 03:12:00,54.0,49.0,30.18,North,-999,-999.0,-999.0,84,-99.99,,,-99.99,,2013-07-28 09:12:00,
2013-07-28 03:22:00,53.0,50.0,30.18,North,-999,-999.0,-999.0,88,-99.99,,,-99.99,,2013-07-28 09:22:00,
2013-07-28 03:32:00,53.0,50.0,30.18,North,-999,-999.0,-999.0,88,-99.99,,,-99.99,,2013-07-28 09:32:00,
2013-07-28 03:43:00,53.0,50.0,30.18,North,-999,-999.0,-999.0,88,-99.99,,,-99.99,,2013-07-28 09:43:00,
2013-07-28 03:53:00,53.0,50.0,30.17,North,-999,-999.0,-999.0,90,-99.99,,,-99.99,,2013-07-28 09:53:00,
2013-07-28 04:02:00,53.0,50.0,30.17,North,-999,-999.0,-999.0,90,-99.99,,,-99.99,,2013-07-28 10:02:00,
2013-07-28 04:12:00,53.0,50.0,30.17,North,-999,-999.0,-999.0,90,-99.99,,,-99.99,,2013-07-28 10:12:00,
2013-07-28 04:22:00,53.0,51.0,30.16,North,-999,-999.0,-999.0,92,-99.99,,,-99.99,,2013-07-28 10:22:00,
2013-07-28 04:33:00,53.0,51.0,30.16,North,-999,-999.0,-999.0,92,-99.99,,,-99.99,,2013-07-28 10:33:00,
2013-07-28 04:42:00,53.0,51.0,30.16,North,-999,-999.0,-999.0,92,-99.99,,,-99.99,,2013-07-28 10:42:00,
2013-07-28 04:52:00,53.0,51.0,30.14,North,-999,-999.0,-999.0,92,-99.99,,,-99.99,,2013-07-28 10:52:00,
2013-07-28 05:02:00,53.0,51.0,30.14,North,-999,-999.0,-999.0,92,-99.99,,,-99.99,,2013-07-28 11:02:00,
2013-07-28 05:12:00,53.0,51.0,30.14,North,-999,-999.0,-999.0,92,-99.99,,,-99.99,,2013-07-28 11:12:00,
2013-07-28 05:22:00,54.0,51.0,30.14,North,-999,-999.0,-999.0,91,-99.99,,,-99.99,,2013-07-28 11:22:00,
2013-07-28 05:33:00,54.0,51.0,30.14,North,-999,-999.0,-999.0,91,-99.99,,,-99.99,,2013-07-28 11:33:00,
2013-07-28 05:43:00,54.0,51.0,30.14,North,-999,-999.0,-999.0,91,-99.99,,,-99.99,,2013-07-28 11:43:00,
2013-07-28 05:54:00,53.0,51.0,30.13,North,-999,-999.0,-999.0,90,-99.99,,,-99.99,,2013-07-28 11:54:00,
2013-07-28 06:02:00,53.0,51.0,30.13,North,-999,-999.0,-999.0,90,-99.99,,,-99.99,,2013-07-28 12:02:00,
2013-07-28 06:12:00,53.0,51.0,30.13,North,-999,-999.0,-999.0,90,-99.99,,,-99.99,,2013-07-28 12:12:00,
2013-07-28 06:22:00,53.0,49.0,30.14,North,-999,-999.0,-999.0,85,-99.99,,,-99.99,,2013-07-28 12:22:00,
2013-07-28 06:33:00,53.0,49.0,30.14,North,-999,-999.0,-999.0,85,-99.99,,,-99.99,,2013-07-28 12:33:00,
2013-07-28 06:43:00,53.0,49.0,30.14,North,-999,-999.0,-999.0,85,-99.99,,,-99.99,,2013-07-28 12:43:00,
2013-07-28 06:53:00,53.0,49.0,30.14,North,-999,-999.0,-999.0,85,-99.99,,,-99.99,,2013-07-28 12:53:00,
2013-07-28 07:02:00,53.0,49.0,30.14,North,-999,-999.0,-999.0,85,-99.99,,,-99.99,,2013-07-28 13:02:00,
2013-07-28 07:12:00,53.0,49.0,30.14,North,-999,-999.0,-999.0,85,-99.99,,,-99.99,,2013-07-28 13:12:00,
2013-07-28 07:32:00,54.0,50.0,30.15,North,-999,-999.0,-999.0,87,-99.99,,,-99.99,,2013-07-28 13:32:00,
2013-07-28 07:43:00,54.0,50.0,30.15,North,-999,-999.0,-999.0,87,-99.99,,,-99.99,,2013-07-28 13:43:00,
2013-07-28 07:52:00,55.0,50.0,30.15,North,-999,-999.0,-999.0,82,-99.99,,,-99.99,,2013-07-28 13:52:00,
2013-07-28 08:02:00,55.0,50.0,30.15,North,-999,-999.0,-999.0,82,-99.99,,,-99.99,,2013-07-28 14:02:00,
2013-07-28 08:23:00,56.0,50.0,30.16,North,-999,-999.0,-999.0,80,-99.99,,,-99.99,,2013-07-28 14:23:00,
2013-07-28 08:33:00,56.0,50.0,30.16,North,-999,-999.0,-999.0,80,-99.99,,,-99.99,,2013-07-28 14:33:00,
2013-07-28 08:43:00,56.0,50.0,30.16,North,-999,-999.0,-999.0,80,-99.99,,,-99.99,,2013-07-28 14:43:00,
2013-07-28 08:53:00,57.0,50.0,30.16,North,-999,-999.0,-999.0,79,-99.99,,,-99.99,,2013-07-28 14:53:00,
2013-07-28 09:02:00,57.0,50.0,30.16,North,-999,-999.0,-999.0,79,-99.99,,,-99.99,,2013-07-28 15:02:00,
2013-07-28 09:13:00,57.0,50.0,30.16,North,-999,-999.0,-999.0,79,-99.99,,,-99.99,,2013-07-28 15:13:00,
2013-07-28 09:22:00,57.0,51.0,30.16,North,-999,-999.0,-999.0,79,-99.99,,,-99.99,,2013-07-28 15:22:00,
2013-07-28 09:33:00,57.0,51.0,30.16,North,-999,-999.0,-999.0,79,-99.99,,,-99.99,,2013-07-28 15:33:00,
2013-07-28 09:43:00,57.0,51.0,30.16,North,-999,-999.0,-999.0,79,-99.99,,,-99.99,,2013-07-28 15:43:00,
2013-07-28 09:53:00,58.0,50.0,30.16,North,-999,-999.0,-999.0,73,-99.99,,,-99.99,,2013-07-28 15:53:00,
2013-07-28 10:02:00,58.0,50.0,30.16,North,-999,-999.0,-999.0,73,-99.99,,,-99.99,,2013-07-28 16:02:00,
2013-07-28 10:12:00,58.0,50.0,30.16,North,-999,-999.0,-999.0,73,-99.99,,,-99.99,,2013-07-28 16:12:00,
2013-07-28 10:22:00,59.0,51.0,30.16,North,-999,-999.0,-999.0,73,-99.99,,,-99.99,,2013-07-28 16:22:00,
2013-07-28 10:33:00,59.0,51.0,30.16,North,-999,-999.0,-999.0,73,-99.99,,,-99.99,,2013-07-28 16:33:00,
2013-07-28 10:43:00,59.0,51.0,30.16,North,-999,-999.0,-999.0,73,-99.99,,,-99.99,,2013-07-28 16:43:00,
2013-07-28 10:52:00,61.0,49.0,30.16,North,-999,-999.0,-999.0,65,-99.99,,,-99.99,,2013-07-28 16:52:00,
2013-07-28 11:02:00,61.0,49.0,30.16,North,-999,-999.0,-999.0,65,-99.99,,,-99.99,,2013-07-28 17:02:00,
2013-07-28 11:12:00,61.0,49.0,30.16,North,-999,-999.0,-999.0,65,-99.99,,,-99.99,,2013-07-28 17:12:00,
2013-07-28 11:22:00,62.0,50.0,30.16,North,-999,-999.0,-999.0,65,-99.99,,,-99.99,,2013-07-28 17:22:00,
2013-07-28 11:32:00,62.0,50.0,30.16,North,-999,-999.0,-999.0,65,-99.99,,,-99.99,,2013-07-28 17:32:00,
2013-07-28 11:43:00,62.0,50.0,30.16,North,-999,-999.0,-999.0,65,-99.99,,,-99.99,,2013-07-28 17:43:00,
2013-07-28 11:53:00,61.0,50.0,30.16,North,-999,-999.0,-999.0,65,-99.99,,,-99.99,,2013-07-28 17:53:00,
2013-07-28 12:03:00,61.0,50.0,30.16,North,-999,-999.0,-999.0,65,-99.99,,,-99.99,,2013-07-28 18:03:00,
2013-07-28 12:12:00,61.0,50.0,30.16,North,-999,-999.0,-999.0,65,-99.99,,,-99.99,,2013-07-28 18:12:00,
2013-07-28 12:22:00,61.0,51.0,30.16,North,-999,-999.0,-999.0,69,-99.99,,,-99.99,,2013-07-28 18:22:00,
2013-07-28 12:33:00,61.0,51.0,30.16,North,-999,-999.0,-999.0,69,-99.99,,,-99.99,,2013-07-28 18:33:00,
2013-07-28 12:43:00,61.0,51.0,30.16,North,-999,-999.0,-999.0,69,-99.99,,,-99.99,,2013-07-28 18:43:00,
2013-07-28 12:52:00,65.0,48.0,30.16,North,-999,-999.0,-999.0,55,-99.99,,,-99.99,,2013-07-28 18:52:00,
2013-07-28 13:02:00,65.0,48.0,30.16,North,-999,-999.0,-999.0,55,-99.99,,,-99.99,,2013-07-28 19:02:00,
2013-07-28 13:12:00,65.0,48.0,30.16,North,-999,-999.0,-999.0,55,-99.99,,,-99.99,,2013-07-28 19:12:00,
2013-07-28 13:22:00,66.0,48.0,30.15,North,-999,-999.0,-999.0,53,-99.99,,,-99.99,,2013-07-28 19:22:00,
2013-07-28 13:33:00,66.0,48.0,30.15,North,-999,-999.0,-999.0,53,-99.99,,,-99.99,,2013-07-28 19:33:00,
2013-07-28 13:43:00,66.0,48.0,30.15,North,-999,-999.0,-999.0,53,-99.99,,,-99.99,,2013-07-28 19:43:00,
2013-07-28 13:52:00,66.0,48.0,30.14,North,-999,-999.0,-999.0,51,-99.99,,,-99.99,,2013-07-28 19:52:00,
2013-07-28 14:02:00,66.0,48.0,30.14,North,-999,-999.0,-999.0,51,-99.99,,,-99.99,,2013-07-28 20:02:00,
2013-07-28 14:12:00,66.0,48.0,30.14,North,-999,-999.0,-999.0,51,-99.99,,,-99.99,,2013-07-28 20:12:00,
2013-07-28 14:23:00,70.0,48.0,30.13,North,-999,-999.0,-999.0,45,-99.99,,,-99.99,,2013-07-28 20:23:00,
2013-07-28 14:33:00,70.0,48.0,30.13,North,-999,-999.0,-999.0,45,-99.99,,,-99.99,,2013-07-28 20:33:00,
2013-07-28 14:43:00,70.0,48.0,30.13,North,-999,-999.0,-999.0,45,-99.99,,,-99.99,,2013-07-28 20:43:00,
2013-07-28 14:53:00,69.0,47.0,30.12,North,-999,-999.0,-999.0,46,-99.99,,,-99.99,,2013-07-28 20:53:00,
2013-07-28 15:02:00,69.0,47.0,30.12,North,-999,-999.0,-999.0,46,-99.99,,,-99.99,,2013-07-28 21:02:00,
2013-07-28 15:12:00,69.0,47.0,30.12,North,-999,-999.0,-999.0,46,-99.99,,,-99.99,,2013-07-28 21:12:00,
2013-07-28 15:22:00,69.0,48.0,30.12,North,-999,-999.0,-999.0,46,-99.99,,,-99.99,,2013-07-28 21:22:00,
2013-07-28 15:33:00,69.0,48.0,30.12,North,-999,-999.0,-999.0,46,-99.99,,,-99.99,,2013-07-28 21:33:00,
2013-07-28 15:44:00,69.0,48.0,30.12,North,-999,-999.0,-999.0,46,-99.99,,,-99.99,,2013-07-28 21:44:00,
2013-07-28 16:02:00,60.0,54.0,30.12,North,-999,-999.0,-999.0,80,-99.99,,,-99.99,,2013-07-28 22:02:00,
2013-07-28 16:12:00,60.0,54.0,30.12,North,-999,-999.0,-999.0,80,-99.99,,,-99.99,,2013-07-28 22:12:00,
2013-07-28 16:22:00,65.0,51.0,30.12,North,-999,-999.0,-999.0,61,-99.99,,,-99.99,,2013-07-28 22:22:00,
2013-07-28 16:32:00,65.0,51.0,30.12,North,-999,-999.0,-999.0,61,-99.99,,,-99.99,,2013-07-28 22:32:00,
2013-07-28 16:43:00,65.0,51.0,30.12,North,-999,-999.0,-999.0,61,-99.99,,,-99.99,,2013-07-28 22:43:00,
2013-07-28 16:52:00,65.0,52.0,30.11,North,-999,-999.0,-999.0,61,-99.99,,,-99.99,,2013-07-28 22:52:00,
2013-07-28 17:03:00,65.0,52.0,30.11,North,-999,-999.0,-999.0,61,-99.99,,,-99.99,,2013-07-28 23:03:00,
2013-07-28 17:12:00,65.0,52.0,30.11,North,-999,-999.0,-999.0,61,-99.99,,,-99.99,,2013-07-28 23:12:00,
2013-07-28 17:22:00,66.0,51.0,30.10,North,-999,-999.0,-999.0,59,-99.99,,,-99.99,,2013-07-28 23:22:00,
2013-07-28 17:33:00,66.0,51.0,30.10,North,-999,-999.0,-999.0,59,-99.99,,,-99.99,,2013-07-28 23:33:00,
2013-07-28 17:43:00,66.0,51.0,30.10,North,-999,-999.0,-999.0,59,-99.99,,,-99.99,,2013-07-28 23:43:00,
2013-07-28 17:53:00,67.0,47.0,30.09,North,-999,-999.0,-999.0,49,-99.99,,,-99.99,,2013-07-28 23:53:00,
2013-07-28 18:02:00,67.0,47.0,30.09,North,-999,-999.0,-999.0,49,-99.99,,,-99.99,,2013-07-29 00:02:00,
2013-07-28 18:12:00,67.0,47.0,30.09,North,-999,-999.0,-999.0,49,-99.99,,,-99.99,,2013-07-29 00:12:00,
2013-07-28 18:22:00,67.0,47.0,30.09,North,-999,-999.0,-999.0,49,-99.99,,,-99.99,,2013-07-29 00:22:00,
2013-07-28 18:52:00,68.0,48.0,30.09,North,-999,-999.0,-999.0,49,-99.99,,,-99.99,,2013-07-29 00:52:00,
2013-07-28 19:02:00,68.0,48.0,30.09,North,-999,-999.0,-999.0,49,-99.99,,,-99.99,,2013-07-29 01:02:00,
2013-07-28 19:13:00,68.0,48.0,30.09,North,-999,-999.0,-999.0,49,-99.99,,,-99.99,,2013-07-29 01:13:00,
2013-07-28 19:26:00,66.0,53.0,30.09,North,-999,-999.0,-999.0,63,-99.99,,,-99.99,,2013-07-29 01:26:00,
2013-07-28 19:34:00,66.0,53.0,30.09,North,-999,-999.0,-999.0,63,-99.99,,,-99.99,,2013-07-29 01:34:00,
2013-07-28 19:44:00,66.0,53.0,30.09,North,-999,-999.0,-999.0,63,-99.99,,,-99.99,,2013-07-29 01:44:00,
2013-07-28 19:56:00,64.0,53.0,30.10,North,-999,-999.0,-999.0,66,-99.99,,,-99.99,,2013-07-29 01:56:00,
2013-07-28 20:14:00,64.0,53.0,30.10,North,-999,-999.0,-999.0,66,-99.99,,,-99.99,,2013-07-29 02:14:00,
2013-07-28 20:24:00,62.0,53.0,30.10,North,-999,-999.0,-999.0,72,-99.99,,,-99.99,,2013-07-29 02:24:00,
2013-07-28 20:36:00,62.0,53.0,30.10,North,-999,-999.0,-999.0,72,-99.99,,,-99.99,,2013-07-29 02:36:00,
2013-07-28 20:45:00,62.0,53.0,30.10,North,-999,-999.0,-999.0,72,-99.99,,,-99.99,,2013-07-29 02:45:00,
2013-07-28 20:55:00,59.0,53.0,30.10,North,-999,-999.0,-999.0,79,-99.99,,,-99.99,,2013-07-29 02:55:00,
2013-07-28 21:03:00,59.0,53.0,30.10,North,-999,-999.0,-999.0,79,-99.99,,,-99.99,,2013-07-29 03:03:00,
2013-07-28 21:16:00,59.0,53.0,30.10,North,-999,-999.0,-999.0,79,-99.99,,,-99.99,,2013-07-29 03:16:00,
2013-07-28 21:24:00,58.0,51.0,30.11,North,-999,-999.0,-999.0,76,-99.99,,,-99.99,,2013-07-29 03:24:00,
2013-07-28 21:37:00,58.0,51.0,30.11,North,-999,-999.0,-999.0,76,-99.99,,,-99.99,,2013-07-29 03:37:00,
2013-07-28 21:49:00,58.0,51.0,30.11,North,-999,-999.0,-999.0,76,-99.99,,,-99.99,,2013-07-29 03:49:00,
2013-07-28 21:58:00,58.0,51.0,30.12,North,-999,-999.0,-999.0,77,-99.99,,,-99.99,,2013-07-29 03:58:00,
2013-07-28 22:02:00,58.0,51.0,30.12,North,-999,-999.0,-999.0,77,-99.99,,,-99.99,,2013-07-29 04:02:00,
2013-07-28 22:12:00,58.0,51.0,30.12,North,-999,-999.0,-999.0,77,-99.99,,,-99.99,,2013-07-29 04:12:00,
2013-07-28 22:22:00,57.0,52.0,30.12,North,-999,-999.0,-999.0,80,-99.99,,,-99.99,,2013-07-29 04:22:00,
2013-07-28 22:32:00,57.0,52.0,30.12,North,-999,-999.0,-999.0,80,-99.99,,,-99.99,,2013-07-29 04:32:00,
2013-07-28 22:43:00,57.0,52.0,30.12,North,-999,-999.0,-999.0,80,-99.99,,,-99.99,,2013-07-29 04:43:00,
2013-07-28 22:53:00,56.0,52.0,30.11,North,-999,-999.0,-999.0,87,-99.99,,,-99.99,,2013-07-29 04:53:00,
2013-07-28 23:02:00,56.0,52.0,30.11,North,-999,-999.0,-999.0,87,-99.99,,,-99.99,,2013-07-29 05:02:00,
2013-07-28 23:12:00,56.0,52.0,30.11,North,-999,-999.0,-999.0,87,-99.99,,,-99.99,,2013-07-29 05:12:00,
2013-07-28 23:22:00,56.0,52.0,30.11,North,-999,-999.0,-999.0,87,-99.99,,,-99.99,,2013-07-29 05:22:00,
2013-07-28 23:32:00,56.0,52.0,30.11,North,-999,-999.0,-999.0,87,-99.99,,,-99.99,,2013-07-29 05:32:00,
2013-07-28 23:42:00,56.0,52.0,30.11,North,-999,-999.0,-999.0,87,-99.99,,,-99.99,,2013-07-29 05:42:00,
2013-07-28 23:53:00,56.0,52.0,30.12,North,-999,-999.0,-999.0,87,-99.99,,,-99.99,,2013-07-29 05:53:00,